Time,TemperatureF,DewpointF,PressureIn,WindDirection,WindDirectionDegrees,WindSpeedMPH,WindSpeedGustMPH,Humidity,HourlyPrecipIn,Conditions,Clouds,dailyrainin,SoftwareType,DateUTC
2013-05-29 00:01:00,45.0,36.0,-100.00,SSW,212,20.0,26.0,72,0.00,,,-99.99,,2013-05-29 06:01:00,
2013-05-29 00:11:00,44.0,36.0,-100.00,SSW,208,20.0,26.0,73,0.00,,,-99.99,,2013-05-29 06:11:00,
2013-05-29 00:21:00,44.0,36.0,-100.00,SSW,206,14.0,18.0,73,0.00,,,-99.99,,2013-05-29 06:21:00,
2013-05-29 00:31:00,44.0,36.0,-100.00,SSW,212,15.0,21.0,75,0.00,,,-99.99,,2013-05-29 06:31:00,
2013-05-29 00:42:00,43.0,36.0,-100.00,SSW,208,11.0,15.0,76,0.00,,,-99.99,,2013-05-29 06:42:00,
2013-05-29 00:51:00,43.0,35.0,-100.00,SSW,209,14.0,22.0,74,0.00,,,-99.99,,2013-05-29 06:51:00,
2013-05-29 01:01:00,43.0,35.0,-100.00,SSW,210,21.0,27.0,73,0.00,,,-99.99,,2013-05-29 07:01:00,
2013-05-29 01:11:00,43.0,35.0,-100.00,SSW,213,24.0,29.0,75,0.00,,,-99.99,,2013-05-29 07:11:00,
2013-05-29 01:21:00,43.0,35.0,-100.00,SSW,210,22.0,30.0,75,0.00,,,-99.99,,2013-05-29 07:21:00,
2013-05-29 01:34:00,43.0,35.0,-100.00,SSW,205,21.0,26.0,74,0.00,,,-99.99,,2013-05-29 07:34:00,
2013-05-29 01:42:00,43.0,35.0,-100.00,SSW,210,21.0,25.0,72,0.00,,,-99.99,,2013-05-29 07:42:00,
2013-05-29 01:52:00,43.0,35.0,-100.00,SSW,210,20.0,24.0,72,0.00,,,-99.99,,2013-05-29 07:52:00,
2013-05-29 02:02:00,43.0,35.0,-100.00,SSW,209,19.0,24.0,74,0.00,,,-99.99,,2013-05-29 08:02:00,
2013-05-29 02:11:00,43.0,35.0,-100.00,SSW,208,18.0,21.0,74,0.00,,,-99.99,,2013-05-29 08:11:00,
2013-05-29 02:21:00,44.0,35.0,-100.00,SSW,213,19.0,23.0,71,0.00,,,-99.99,,2013-05-29 08:21:00,
2013-05-29 02:32:00,44.0,35.0,-100.00,SW,215,12.0,19.0,70,0.00,,,-99.99,,2013-05-29 08:32:00,
2013-05-29 02:41:00,44.0,35.0,-100.00,South,172,4.0,10.0,72,0.00,,,-99.99,,2013-05-29 08:41:00,
2013-05-29 02:51:00,43.0,35.0,-100.00,SE,145,6.0,9.0,74,0.00,,,-99.99,,2013-05-29 08:51:00,
2013-05-29 03:01:00,43.0,35.0,-100.00,SSW,193,4.0,6.0,73,0.00,,,-99.99,,2013-05-29 09:01:00,
2013-05-29 03:11:00,44.0,35.0,-100.00,SSW,213,4.0,7.0,71,0.00,,,-99.99,,2013-05-29 09:11:00,
2013-05-29 03:21:00,44.0,35.0,-100.00,WSW,241,7.0,9.0,71,0.00,,,-99.99,,2013-05-29 09:21:00,
2013-05-29 03:33:00,44.0,35.0,-100.00,SW,229,7.0,12.0,72,0.00,,,-99.99,,2013-05-29 09:33:00,
2013-05-29 03:42:00,44.0,35.0,-100.00,SW,219,14.0,16.0,72,0.00,,,-99.99,,2013-05-29 09:42:00,
2013-05-29 03:52:00,44.0,35.0,-100.00,SW,226,14.0,17.0,72,0.00,,,-99.99,,2013-05-29 09:52:00,
2013-05-29 04:03:00,43.0,36.0,-100.00,SW,232,11.0,15.0,76,0.00,,,-99.99,,2013-05-29 10:03:00,
2013-05-29 04:12:00,43.0,36.0,-100.00,SSW,200,7.0,10.0,75,0.01,,,-99.99,,2013-05-29 10:12:00,
2013-05-29 04:22:00,43.0,37.0,-100.00,SW,232,6.0,9.0,79,0.00,,,-99.99,,2013-05-29 10:22:00,
2013-05-29 04:32:00,42.0,36.0,-100.00,WSW,257,9.0,12.0,78,0.00,,,-99.99,,2013-05-29 10:32:00,
2013-05-29 04:42:00,42.0,37.0,-100.00,WSW,248,12.0,18.0,82,0.00,,,-99.99,,2013-05-29 10:42:00,
2013-05-29 04:52:00,41.0,38.0,-100.00,SW,232,14.0,18.0,88,0.00,,,-99.99,,2013-05-29 10:52:00,
2013-05-29 05:02:00,40.0,38.0,-100.00,SW,224,14.0,20.0,90,0.00,,,-99.99,,2013-05-29 11:02:00,
2013-05-29 05:12:00,40.0,38.0,-100.00,SW,217,10.0,14.0,91,0.01,,,-99.99,,2013-05-29 11:12:00,
2013-05-29 05:22:00,41.0,37.0,-100.00,SSW,202,12.0,19.0,88,0.01,,,-99.99,,2013-05-29 11:22:00,
2013-05-29 05:32:00,40.0,36.0,-100.00,SSW,193,16.0,20.0,86,0.00,,,-99.99,,2013-05-29 11:32:00,
2013-05-29 05:42:00,40.0,37.0,-100.00,SSW,195,14.0,18.0,87,0.00,,,-99.99,,2013-05-29 11:42:00,
2013-05-29 05:51:00,40.0,35.0,-100.00,SSW,195,16.0,23.0,82,0.00,,,-99.99,,2013-05-29 11:51:00,
2013-05-29 06:01:00,40.0,35.0,-100.00,SSW,196,18.0,24.0,81,0.00,,,-99.99,,2013-05-29 12:01:00,
2013-05-29 06:11:00,41.0,35.0,-100.00,SSW,196,18.0,22.0,79,0.00,,,-99.99,,2013-05-29 12:11:00,
2013-05-29 06:21:00,41.0,35.0,-100.00,SSW,192,16.0,20.0,79,0.00,,,-99.99,,2013-05-29 12:21:00,
2013-05-29 06:32:00,41.0,35.0,-100.00,South,189,16.0,21.0,78,0.00,,,-99.99,,2013-05-29 12:32:00,
2013-05-29 06:42:00,41.0,35.0,-100.00,South,188,16.0,20.0,78,0.00,,,-99.99,,2013-05-29 12:42:00,
2013-05-29 06:51:00,42.0,34.0,-100.00,South,182,14.0,19.0,75,0.00,,,-99.99,,2013-05-29 12:51:00,
2013-05-29 07:02:00,42.0,35.0,-100.00,South,171,11.0,15.0,76,0.00,,,-99.99,,2013-05-29 13:02:00,
2013-05-29 07:11:00,42.0,34.0,-100.00,SE,144,8.0,12.0,74,0.00,,,-99.99,,2013-05-29 13:11:00,
2013-05-29 07:21:00,42.0,35.0,-100.00,South,174,7.0,11.0,76,0.00,,,-99.99,,2013-05-29 13:21:00,
2013-05-29 07:32:00,42.0,34.0,-100.00,South,188,9.0,15.0,72,0.00,,,-99.99,,2013-05-29 13:32:00,
2013-05-29 07:42:00,43.0,34.0,-100.00,South,186,10.0,15.0,71,0.00,,,-99.99,,2013-05-29 13:42:00,
2013-05-29 07:52:00,43.0,34.0,-100.00,SSE,168,7.0,11.0,71,0.00,,,-99.99,,2013-05-29 13:52:00,
2013-05-29 08:02:00,43.0,37.0,-100.00,WSW,240,4.0,7.0,81,0.00,,,-99.99,,2013-05-29 14:02:00,
2013-05-29 08:11:00,42.0,36.0,-100.00,WNW,302,4.0,9.0,77,0.00,,,-99.99,,2013-05-29 14:11:00,
2013-05-29 08:21:00,42.0,37.0,-100.00,NW,318,4.0,7.0,82,0.00,,,-99.99,,2013-05-29 14:21:00,
2013-05-29 08:32:00,42.0,37.0,-100.00,NW,322,4.0,6.0,81,0.00,,,-99.99,,2013-05-29 14:32:00,
2013-05-29 08:41:00,43.0,37.0,-100.00,NNW,340,2.0,4.0,81,0.00,,,-99.99,,2013-05-29 14:41:00,
2013-05-29 08:52:00,42.0,37.0,-100.00,ENE,59,3.0,4.0,81,0.00,,,-99.99,,2013-05-29 14:52:00,
2013-05-29 09:01:00,44.0,36.0,-100.00,ESE,116,1.0,6.0,74,0.03,,,-99.99,,2013-05-29 15:01:00,
2013-05-29 09:11:00,43.0,35.0,-100.00,SW,223,10.0,13.0,73,0.03,,,-99.99,,2013-05-29 15:11:00,
2013-05-29 09:21:00,43.0,37.0,-100.00,SW,233,10.0,15.0,79,0.01,,,-99.99,,2013-05-29 15:21:00,
2013-05-29 09:33:00,43.0,38.0,-100.00,WSW,247,11.0,15.0,80,0.01,,,-99.99,,2013-05-29 15:33:00,
2013-05-29 09:42:00,43.0,36.0,-100.00,WSW,240,11.0,15.0,76,0.00,,,-99.99,,2013-05-29 15:42:00,
2013-05-29 09:53:00,44.0,37.0,-100.00,WSW,237,12.0,16.0,77,0.00,,,-99.99,,2013-05-29 15:53:00,
2013-05-29 10:03:00,43.0,38.0,-100.00,WSW,246,13.0,19.0,82,0.00,,,-99.99,,2013-05-29 16:03:00,
2013-05-29 10:12:00,42.0,38.0,-100.00,WSW,244,14.0,20.0,84,0.00,,,-99.99,,2013-05-29 16:12:00,
2013-05-29 10:22:00,41.0,37.0,-100.00,WSW,240,19.0,24.0,87,0.00,,,-99.99,,2013-05-29 16:22:00,
2013-05-29 10:32:00,40.0,38.0,-100.00,SW,236,21.0,25.0,92,0.03,,,-99.99,,2013-05-29 16:32:00,
2013-05-29 10:42:00,39.0,37.0,-100.00,SW,232,19.0,26.0,91,0.01,,,-99.99,,2013-05-29 16:42:00,
2013-05-29 10:52:00,39.0,37.0,-100.00,SW,226,18.0,25.0,91,0.01,,,-99.99,,2013-05-29 16:52:00,
2013-05-29 11:02:00,39.0,36.0,-100.00,SW,217,15.0,20.0,90,0.03,,,-99.99,,2013-05-29 17:02:00,
2013-05-29 11:12:00,40.0,37.0,-100.00,SW,220,15.0,19.0,90,0.00,,,-99.99,,2013-05-29 17:12:00,
2013-05-29 11:22:00,41.0,38.0,-100.00,SW,227,15.0,20.0,89,0.00,,,-99.99,,2013-05-29 17:22:00,
2013-05-29 11:32:00,40.0,37.0,-100.00,SW,229,17.0,23.0,89,0.00,,,-99.99,,2013-05-29 17:32:00,
2013-05-29 11:42:00,40.0,38.0,-100.00,WSW,248,15.0,22.0,90,0.00,,,-99.99,,2013-05-29 17:42:00,
2013-05-29 11:52:00,41.0,38.0,-100.00,SW,233,18.0,24.0,89,0.00,,,-99.99,,2013-05-29 17:52:00,
2013-05-29 12:01:00,42.0,39.0,-100.00,SW,230,19.0,27.0,90,0.00,,,-99.99,,2013-05-29 18:01:00,
2013-05-29 12:13:00,42.0,38.0,-100.00,SW,230,21.0,29.0,87,0.00,,,-99.99,,2013-05-29 18:13:00,
2013-05-29 12:22:00,42.0,38.0,-100.00,SW,230,21.0,28.0,85,0.00,,,-99.99,,2013-05-29 18:22:00,
2013-05-29 12:32:00,43.0,39.0,-100.00,SW,232,21.0,29.0,84,0.00,,,-99.99,,2013-05-29 18:32:00,
2013-05-29 12:42:00,42.0,38.0,-100.00,SW,227,23.0,30.0,84,0.00,,,-99.99,,2013-05-29 18:42:00,
2013-05-29 12:51:00,42.0,37.0,-100.00,SW,229,23.0,30.0,82,0.00,,,-99.99,,2013-05-29 18:51:00,
2013-05-29 13:02:00,43.0,38.0,-100.00,SW,230,23.0,30.0,80,0.00,,,-99.99,,2013-05-29 19:02:00,
2013-05-29 13:11:00,44.0,37.0,-100.00,SW,226,24.0,31.0,76,0.00,,,-99.99,,2013-05-29 19:11:00,
2013-05-29 13:21:00,44.0,36.0,-100.00,SW,229,24.0,31.0,72,0.00,,,-99.99,,2013-05-29 19:21:00,
2013-05-29 13:32:00,45.0,36.0,-100.00,WSW,237,23.0,30.0,71,0.00,,,-99.99,,2013-05-29 19:32:00,
2013-05-29 13:44:00,41.0,37.0,-100.00,WSW,241,24.0,34.0,86,0.01,,,-99.99,,2013-05-29 19:44:00,
2013-05-29 13:52:00,41.0,37.0,-100.00,SW,233,24.0,31.0,86,0.00,,,-99.99,,2013-05-29 19:52:00,
2013-05-29 14:02:00,43.0,37.0,-100.00,WSW,239,18.0,29.0,79,0.00,,,-99.99,,2013-05-29 20:02:00,
2013-05-29 14:11:00,45.0,37.0,-100.00,WSW,239,19.0,26.0,74,0.00,,,-99.99,,2013-05-29 20:11:00,
2013-05-29 14:22:00,42.0,36.0,-100.00,WSW,248,26.0,39.0,81,0.00,,,-99.99,,2013-05-29 20:22:00,
2013-05-29 14:33:00,41.0,37.0,-100.00,SW,226,24.0,34.0,83,0.00,,,-99.99,,2013-05-29 20:33:00,
2013-05-29 14:42:00,43.0,38.0,-100.00,SW,219,21.0,34.0,85,0.00,,,-99.99,,2013-05-29 20:42:00,
2013-05-29 14:52:00,45.0,37.0,-100.00,SW,236,19.0,26.0,75,0.00,,,-99.99,,2013-05-29 20:52:00,
2013-05-29 15:02:00,46.0,38.0,-100.00,SW,233,20.0,26.0,71,0.00,,,-99.99,,2013-05-29 21:02:00,
2013-05-29 15:12:00,47.0,36.0,-100.00,SW,224,22.0,31.0,65,0.00,,,-99.99,,2013-05-29 21:12:00,
2013-05-29 15:22:00,45.0,33.0,-100.00,SW,222,26.0,33.0,61,0.00,,,-99.99,,2013-05-29 21:22:00,
2013-05-29 15:33:00,47.0,35.0,-100.00,SW,224,23.0,32.0,61,0.00,,,-99.99,,2013-05-29 21:33:00,
2013-05-29 15:43:00,47.0,35.0,-100.00,SW,224,27.0,38.0,62,0.00,,,-99.99,,2013-05-29 21:43:00,
2013-05-29 15:53:00,42.0,37.0,-100.00,SW,229,29.0,43.0,84,0.03,,,-99.99,,2013-05-29 21:53:00,
2013-05-29 16:03:00,42.0,36.0,-100.00,SSW,213,26.0,37.0,80,0.00,,,-99.99,,2013-05-29 22:03:00,
2013-05-29 16:12:00,43.0,35.0,-100.00,SW,215,29.0,35.0,75,0.00,,,-99.99,,2013-05-29 22:12:00,
2013-05-29 16:23:00,45.0,34.0,-100.00,SSW,212,27.0,34.0,65,0.00,,,-99.99,,2013-05-29 22:23:00,
2013-05-29 16:33:00,47.0,35.0,-100.00,SW,216,24.0,32.0,62,0.00,,,-99.99,,2013-05-29 22:33:00,
2013-05-29 16:42:00,48.0,35.0,-100.00,SSW,213,27.0,34.0,60,0.00,,,-99.99,,2013-05-29 22:42:00,
2013-05-29 16:53:00,50.0,34.0,-100.00,SW,217,27.0,36.0,55,0.00,,,-99.99,,2013-05-29 22:53:00,
2013-05-29 17:02:00,48.0,34.0,-100.00,SW,226,26.0,35.0,56,0.00,,,-99.99,,2013-05-29 23:02:00,
2013-05-29 17:12:00,49.0,35.0,-100.00,SW,227,26.0,35.0,57,0.00,,,-99.99,,2013-05-29 23:12:00,
2013-05-29 17:21:00,51.0,32.0,-100.00,SW,229,28.0,37.0,49,0.00,,,-99.99,,2013-05-29 23:21:00,
2013-05-29 17:33:00,50.0,33.0,-100.00,SW,232,29.0,38.0,51,0.00,,,-99.99,,2013-05-29 23:33:00,
2013-05-29 17:42:00,50.0,31.0,-100.00,SW,234,28.0,37.0,49,0.00,,,-99.99,,2013-05-29 23:42:00,
2013-05-29 17:52:00,49.0,30.0,-100.00,WSW,250,30.0,45.0,49,0.00,,,-99.99,,2013-05-29 23:52:00,
2013-05-29 18:01:00,46.0,32.0,-100.00,West,268,30.0,47.0,58,0.00,,,-99.99,,2013-05-30 00:01:00,
2013-05-29 18:11:00,46.0,34.0,-100.00,WSW,258,24.0,32.0,61,0.00,,,-99.99,,2013-05-30 00:11:00,
2013-05-29 18:21:00,47.0,35.0,-100.00,WSW,253,23.0,37.0,62,0.00,,,-99.99,,2013-05-30 00:21:00,
2013-05-29 18:31:00,45.0,35.0,-100.00,SW,229,29.0,36.0,68,0.00,,,-99.99,,2013-05-30 00:31:00,
2013-05-29 18:42:00,43.0,35.0,-100.00,SW,219,30.0,39.0,73,0.00,,,-99.99,,2013-05-30 00:42:00,
2013-05-29 18:52:00,41.0,36.0,-100.00,SSW,213,29.0,40.0,82,0.00,,,-99.99,,2013-05-30 00:52:00,
2013-05-29 19:01:00,42.0,35.0,-100.00,SSW,200,28.0,37.0,77,0.00,,,-99.99,,2013-05-30 01:01:00,
2013-05-29 19:11:00,42.0,35.0,-100.00,SSW,200,29.0,41.0,75,0.00,,,-99.99,,2013-05-30 01:11:00,
2013-05-29 19:21:00,42.0,35.0,-100.00,SSW,203,25.0,35.0,76,0.00,,,-99.99,,2013-05-30 01:21:00,
2013-05-29 19:32:00,42.0,34.0,-100.00,SSW,205,23.0,32.0,74,0.00,,,-99.99,,2013-05-30 01:32:00,
2013-05-29 19:41:00,42.0,34.0,-100.00,SSW,208,27.0,33.0,71,0.00,,,-99.99,,2013-05-30 01:41:00,
2013-05-29 19:52:00,42.0,35.0,-100.00,SW,215,25.0,34.0,75,0.00,,,-99.99,,2013-05-30 01:52:00,
2013-05-29 20:01:00,41.0,35.0,-100.00,SW,236,21.0,29.0,78,0.01,,,-99.99,,2013-05-30 02:01:00,
2013-05-29 20:11:00,40.0,35.0,-100.00,SW,232,19.0,29.0,82,0.01,,,-99.99,,2013-05-30 02:11:00,
2013-05-29 20:21:00,39.0,36.0,-100.00,SW,234,21.0,32.0,89,0.00,,,-99.99,,2013-05-30 02:21:00,
2013-05-29 20:32:00,39.0,35.0,-100.00,SSW,212,24.0,32.0,85,0.00,,,-99.99,,2013-05-30 02:32:00,
2013-05-29 20:42:00,39.0,35.0,-100.00,SSW,212,24.0,32.0,85,0.00,,,-99.99,,2013-05-30 02:42:00,
2013-05-29 20:52:00,39.0,35.0,-100.00,SSW,212,24.0,32.0,85,0.00,,,-99.99,,2013-05-30 02:52:00,
2013-05-29 21:01:00,40.0,36.0,-100.00,SW,216,27.0,35.0,85,0.00,,,-99.99,,2013-05-30 03:01:00,
2013-05-29 21:11:00,39.0,36.0,-100.00,SW,215,24.0,30.0,87,0.00,,,-99.99,,2013-05-30 03:11:00,
2013-05-29 21:21:00,39.0,35.0,-100.00,SSW,210,21.0,27.0,84,0.00,,,-99.99,,2013-05-30 03:21:00,
2013-05-29 21:33:00,39.0,35.0,-100.00,SSW,210,21.0,27.0,84,0.00,,,-99.99,,2013-05-30 03:33:00,
2013-05-29 21:43:00,39.0,35.0,-100.00,SSW,210,20.0,26.0,83,0.00,,,-99.99,,2013-05-30 03:43:00,
2013-05-29 21:53:00,40.0,35.0,-100.00,SW,219,17.0,22.0,85,0.00,,,-99.99,,2013-05-30 03:53:00,
2013-05-29 22:02:00,39.0,35.0,-100.00,SW,215,17.0,24.0,86,0.00,,,-99.99,,2013-05-30 04:02:00,
2013-05-29 22:12:00,40.0,35.0,-100.00,SSW,212,19.0,27.0,85,0.00,,,-99.99,,2013-05-30 04:12:00,
2013-05-29 22:23:00,40.0,35.0,-100.00,SSW,206,19.0,26.0,83,0.00,,,-99.99,,2013-05-30 04:23:00,
2013-05-29 22:33:00,40.0,35.0,-100.00,SSW,206,24.0,31.0,82,0.00,,,-99.99,,2013-05-30 04:33:00,
2013-05-29 22:42:00,39.0,35.0,-100.00,SSW,209,27.0,35.0,86,0.00,,,-99.99,,2013-05-30 04:42:00,
2013-05-29 22:53:00,39.0,34.0,-100.00,SSW,210,25.0,35.0,83,0.00,,,-99.99,,2013-05-30 04:53:00,
2013-05-29 23:02:00,40.0,34.0,-100.00,SSW,212,24.0,31.0,79,0.00,,,-99.99,,2013-05-30 05:02:00,
2013-05-29 23:12:00,40.0,34.0,-100.00,SSW,213,25.0,35.0,78,0.00,,,-99.99,,2013-05-30 05:12:00,
2013-05-29 23:22:00,41.0,33.0,-100.00,SSW,212,24.0,32.0,73,0.00,,,-99.99,,2013-05-30 05:22:00,
2013-05-29 23:32:00,40.0,33.0,-100.00,SW,223,22.0,28.0,77,0.00,,,-99.99,,2013-05-30 05:32:00,
2013-05-29 23:42:00,41.0,34.0,-100.00,SW,223,21.0,29.0,75,0.00,,,-99.99,,2013-05-30 05:42:00,
2013-05-29 23:52:00,41.0,34.0,-100.00,SW,224,22.0,29.0,76,0.00,,,-99.99,,2013-05-30 05:52:00,